Flag for Canada Weather past 2 weeks in Miramichi, New Brunswick, Canada

Now
5 °F

Low level haze.


Feels Like: -7 °F
Forecast: -5 / 9 °F
Wind: 7 mph from Northwest

Location: Bathurst Airport

Current Time: Jan 26, 2015 at 1:28:47 PM

Latest Report: Jan 26, 2015 at 1:00 PM


Visibility: 15 mi

Pressure: 30.16 "Hg

Humidity: 42%

Dew point: -13 °F

Location of MiramichiLocation

Historic Weather in Miramichi — Graph

°F

Miramichi temperature yesterday

Maximum temperature yesterday: 28 °F (at 8:47 AM)
Minimum temperature yesterday: 7 °F (at 5:00 PM)
Average temperature yesterday: 20 °F

Past Weeks' High & Low Weather Summary

 TemperatureHumidityPressure
High43 °F (Jan 19, 12:00 PM)100% (Jan 19, 3:00 AM)30.55 "Hg (Jan 19, 3:00 AM)
Low-22 °F (Jan 14, 5:00 AM)40% (Jan 14, 2:00 PM)28.86 "Hg (Jan 25, 4:00 AM)
Average12 °F69%29.91 "Hg
* Reported Jan 11 12:00 Noon — Jan 26 12:00 Noon, Miramichi, Weather by CustomWeather, © 2014

Note: Actual official high and low records may vary slightly from our data, if they occured in-between our weather recording intervals... More about our weather records

Advertising

Miramichi weather history for previous 24 hours

 ConditionsComfort  
Time TempWeatherWind HumidityBarometerVisibility
12:00 PM
Jan 26
5 °FLow level haze.12 mph42%30.15 "Hg15 mi
11:00 AM3 °FScattered clouds.13 mph46%30.14 "Hg15 mi
10:00 AM1 °FSunny.17 mph50%30.09 "Hg15 mi
9:00 AM0 °FPassing clouds.10 mph54%30.06 "Hg15 mi
8:00 AM0 °FPassing clouds.10 mph54%30.01 "Hg15 mi
7:00 AM0 °FPassing clouds.8 mph60%29.97 "Hg15 mi
6:00 AM0 °FClear.9 mph60%29.92 "Hg15 mi
5:00 AM1 °FClear.13 mph55%29.88 "Hg15 mi
4:00 AM1 °FClear.14 mph55%29.83 "Hg15 mi
3:00 AM1 °FClear.20 mph55%29.78 "Hg15 mi
2:00 AM3 °FClear.12 mph50%29.75 "Hg15 mi
1:00 AM5 °FClear.18 mph51%29.68 "Hg15 mi
12:00 AM5 °FLow level haze.16 mph55%29.62 "Hg15 mi
11:00 PM
Jan 25
7 °FLow level haze.16 mph61%29.56 "Hg15 mi
10:00 PM7 °FPassing clouds.13 mph61%29.51 "Hg15 mi
9:00 PM9 °FPassing clouds.10 mph56%29.46 "Hg15 mi
8:00 PM9 °FPassing clouds.10 mph56%29.43 "Hg15 mi
7:00 PM9 °FPassing clouds.13 mph56%29.39 "Hg15 mi
6:00 PM7 °FPassing clouds.12 mph56%29.35 "Hg15 mi
5:00 PM7 °FLow level haze.16 mph51%29.32 "Hg15 mi
4:00 PM10 °FPartly sunny.17 mph47%29.28 "Hg15 mi
3:00 PM14 °FLow level haze.26 mph48%29.24 "Hg15 mi
2:00 PM16 °FLow level haze.23 mph53%29.20 "Hg15 mi
1:00 PM21 °FLow level haze.26 mph58%29.15 "Hg15 mi
Weather by CustomWeather, © 2014

See weather overviewHow to use our weather pages